Abdullah Town, Pakistan

4:22 PM PKT on November 23, 2017 (GMT +0500)
Westridge-1, Rawalpindi, Pakistan | | Change Station

Elev 1716 ft 33.61 °N, 73.03 °E | Updated 9 seconds ago

Haze
Haze
68.7 °F
Feels Like 68.7 °F
N
0.9
Wind Variable Wind from South
Gusts 2.5 mph

Today
High -- | Low -- °F
--% Chance of Precip.
Yesterday
High -- | Low -- °F
Precip. -- in
Pressure 29.95 in
Visibility 3.7 miles
Clouds Few 10000 ft
Scattered Clouds 20000 ft
Dew Point 55 °F
Humidity 62%
Rainfall 0.00 in
Snow Depth Not available.
6:47 AM 5:01 PM
Waxing Crescent, 21% visible
METAR OPRN 231030Z 23004KT 6000 HZ FEW100 SCT200 24/05 Q1014.2/29.94
Pressure 29.95 in
Visibility 3.7 miles
Clouds Few 10000 ft
Scattered Clouds 20000 ft
Dew Point 55 °F
Humidity 62%
Rainfall 0.00 in
Snow Depth Not available.
6:47 AM 5:01 PM
Waxing Crescent, 21% visible
METAR OPRN 231030Z 23004KT 6000 HZ FEW100 SCT200 24/05 Q1014.2/29.94

Get Severe Weather Alerts

Thanks for signing up!

Be on the lookout for a verification email in your inbox.

You'll start receiving the daily forecast at 6 AM.

×

10-Day Weather Forecast

No radar image for this location.
×

Almanac

Astronomy

Nov. 23, 2017 Rise Set
Actual Time
Civil Twilight
Nautical Twilight
Astronomical Twilight
Moon
Length of Visible Light
Length of Day
Tomorrow will be .
, % of the Moon is Illuminated

Today's Extremes

Country Highs Country Lows

Community

WunderPhotos

Category 6

Welcome to Category 6. This is the collective home for Weather Underground's featured writeups by Dr. Jeff Masters (right), Bob Henson (left), Chris Burt, and other regular contributors.

Nearby

Air Quality

  Air Quality AQ Index Pollutant
Not available.

Snow Depth

Station Depth Elevation

Earthquake Activity

City Distance Mag. Time & Date
Minimum magnitude displayed is 2.5.

Coastal Water Temperatures

Place Temperature

Stations

Nearby Weather Stations

Station Location Temp. Windchill Dew Point Humidity Wind Precip. Elev Updated Type